Location: Newark
(35.2672°N, 80.7344°W)
Time: 04:07:36
(UTC+00:00)

Tiros 1 - Pass Details

Date: 23 January 2020
Orbit: 630 x 664 km, 48.4° (Epoch: 16 February)

Event Time Altitude Azimuth Distance (km) Brightness Sun altitude
Rises 02:25:10 0° 295° (WNW) 2,989 11.3 -45.6°
Enters shadow 02:26:21 - 291° (WNW) 2,566 10.9 -45.9°
Reaches altitude 10° 02:27:50 10° 282° (WNW) 2,076 - -46.2°
Maximum altitude 02:31:44 25° 228° (SW) 1,328 - -46.9°
Drops below altitude 10° 02:35:37 10° 173° (S) 2,069 - -47.7°
Sets 02:38:17 0° 160° (SSE) 2,976 - -48.3°
